www.pogodaiklimat.ru

Погода и климат >> Архив погоды >> Мьянма >> Мьичина


ПОГОДА в Мьичине

  • Прогноз погоды в Мьичине
  • Монитор погоды в Мьичине

АРХИВ ПОГОДЫ в Мьичине

Время (UTC), дата Ветер
(напр.,м/с)
 
Видим.   Явления Облачность Т
(С)
Тd
(С)
f
(%)
Тe
(С)
Тes
(С)
Комфортность P
(гПа)
Po
(гПа)
Тmin
(С)
Tmax
(С)
R
(мм)
R24
(мм)
S
(см)
00 11.06 штиль 0 6000 м {дождь} 10/6 300 м
[Cu Sc Ac As]
+25.6 +24.6 94 +36 +36 очень
душно
1001.6 984.9 +24.6 13
03 11.06 штиль 0 8000 м 6/4 600 м
[Cu Sc Ac As]
+28.8 +25.9 84 +43 +52 опасность
перегрева
1002.5 986.0
06 11.06 ЮВ 1 9000 м 8/4 600 м
[Cu Sc Ac As]
+31.5 +26.7 76 +49 +57 опасность
перегрева
1003.1 986.7
09 11.06 СВ 1 8000 м 9/6 600 м
[Cu Sc Ac As]
+30.2 +25.3 75 +44 +46 опасность
перегрева
1001.9 985.4
12 11.06 ЮВ 1 7000 м 5/3 600 м
[Cu Sc Ac As]
+30.0 +23.9 70 +41 +41 опасность
перегрева
999.1 982.7 +31.8
00 12.06 штиль 0 6000 м 8/4 600 м
[Cu Sc Ac As]
+25.0 +23.3 90 +33 +34 очень
душно
1002.8 986.0 +24.0
03 12.06 ЮЗ 1 8000 м 8/4 600 м
[Cu Sc Ac As]
+28.0 +25.0 84 +40 +46 очень
душно
1003.7 987.1
06 12.06 штиль 0 9000 м 6/4 600 м
[Cu Sc Ac As]
+32.2 +22.3 56 +41 +55 опасность
перегрева
1002.7 986.3
09 12.06 ЮВ 1 10 км 5/3 600 м
[Cu Sc Ac As]
+34.1 +25.7 62 +49 +56 опасность
перегрева
1000.7 984.5
12 12.06 ЮЗ 1 6000 м 6/4 600 м
[Cu Sc Ac As]
+32.0 +24.8 66 +45 +45 опасность
перегрева
1000.4 984.1 +34.6
00 13.06 ЮВ 1 6000 м 6/4 600 м
[Cu Sc Ac As]
+27.3 +25.6 90 +40 +41 очень
душно
1002.6 986.0 +26.4
03 13.06 штиль 0 8000 м 9/5 600 м
[Cu Sc Ac As]
+29.4 +25.9 81 +44 +48 опасность
перегрева
1002.9 986.4
06 13.06 СВ 1 9000 м 6/4 600 м
[Cu Sc Ac As]
+33.0 +25.8 66 +48 +60 опасность
перегрева
1001.8 985.5
09 13.06 СЗ 1 10 км 6/4 600 м
[Cb cap Ac As]
+35.8 +26.4 58 +52 +57 опасность
перегрева
998.5 982.4
12 13.06 штиль 0 6000 м 8/4 600 м
[Cu Sc Ac As]
+32.5 +25.8 68 +48 +48 опасность
перегрева
998.1 981.8 +36.3
00 14.06 ЮЗ 1 6000 м 10/5 300 м
[Cu Sc Ac As]
+25.0 +24.5 97 +35 +35 очень
душно
1001.8 985.1 +23.8 82
03 14.06 штиль 0 8000 м 10/6 600 м
[Cu Sc Ac As]
+27.0 +25.6 92 +40 +42 очень
душно
1003.5 986.8
06 14.06 СЗ 1 8000 м 9/6 600 м
[Cu Sc Ac As]
+30.6 +26.7 80 +48 +52 опасность
перегрева
1001.4 985.0
09 14.06 Ю 1 8000 м 6/4 600 м
[Cu Sc Ac As]
+33.1 +25.8 66 +49 +54 опасность
перегрева
998.5 982.3
12 14.06 ЮЗ 2 5000 м гроза с градом 10/6 300 м
[Cb cap Ac As]
+26.2 +25.8 98 +39 +39 очень
душно
1000.3 983.7 +33.5 42
00 15.06 штиль 0 7000 м 10/5 600 м
[Cu Sc Ac As]
+25.2 +24.8 98 +36 +36 очень
душно
1001.3 984.6 +24.3 2
03 15.06 штиль 0 7000 м слаб. морось 10/6 600 м
[Cu Sc Ac As]
+26.3 +24.6 90 +37 +40 очень
душно
1003.6 986.9
06 15.06 ЮВ 1 7000 м слаб. дождь 10/5 300 м
[Cu Sc Ac As]
+26.4 +24.6 90 +37 +41 очень
душно
1003.1 986.4
09 15.06 штиль 0 8000 м 9/5 600 м
[Cu Sc Ac As]
+28.8 +25.9 84 +43 +46 опасность
перегрева
1000.8 984.3
12 15.06 штиль 0 7000 м 9/6 600 м
[Cu Sc Ac As]
+28.5 +25.0 81 +41 +41 опасность
перегрева
999.2 982.7 +29.1 2
00 16.06 штиль 0 5000 м дождь 10/5 300 м
[Cu Sc Ac As]
+25.6 +25.2 98 +37 +37 очень
душно
1000.2 983.5 +24.6 18
03 16.06 ЮЗ 1 7000 м слаб. дождь {гроза} 10/6 300 м
[Cu Sc Ac As]
+26.0 +25.8 99 +38 +41 очень
душно
1002.6 985.9
06 16.06 ЮЗ 1 7000 м слаб. морось 10/5 300 м
[Cu Sc Ac As]
+27.0 +25.6 92 +40 +44 очень
душно
1001.8 985.2
09 16.06 штиль 0 8000 м 9/5 600 м
[Cu Sc Ac As]
+30.0 +25.3 76 +44 +47 опасность
перегрева
1000.4 984.0
12 16.06 ЮВ 1 5000 м слаб. морось {гроза} 10/6 300 м
[Cu Sc Ac As]
+26.5 +25.6 95 +39 +39 очень
душно
999.8 983.2 +30.3 15
00 17.06 Ю 1 5000 м слаб. дождь 10/6 300 м
[Cu Sc Ac As]
+25.5 +25.1 98 +37 +37 очень
душно
1001.4 984.7 +24.0 3
03 17.06 штиль 0 6000 м слаб. морось 10/6 300 м
[Cu Sc Ac As]
+26.0 +24.6 92 +37 +39 очень
душно
1002.9 986.2
06 17.06 ЮЗ 1 8000 м {морось} 9/5 600 м
[Cu Sc Ac As]
+28.3 +25.0 82 +41 +46 опасность
перегрева
1003.2 986.6
09 17.06 штиль 0 8000 м 9/5 600 м
[Cu Sc Ac As]
+30.2 +26.6 81 +47 +50 опасность
перегрева
1001.5 985.1
12 17.06 ЮВ 1 7000 м 6/4 600 м
[Cu Sc Ac As]
+30.0 +25.3 76 +44 +44 опасность
перегрева
999.1 982.7 +31.0 1

 

Местоположение метеостанции Мьичина (Мьянма): широта 25.37 долгота 97.40 высота над уровнем моря 147 м.

В архиве по умолчанию представлена погода в Мьичине за последнюю неделю. Архивные данные за месяц целиком и за предыдущие месяцы, начиная с января 2011 года, Вы можете получить, выбрав интересующий диапазон дат из раскрывающегося списка и нажав кнопку "Ввод!".


*Определитесь, кто Вы:
робот инопланетянин человек

Внимание! Время в таблицах - всемирное. Для получения местного времени необходимо прибавить поправку, которая равна 6.5 ч.

Смотрите также архив погоды в соседних городах и на ближайших метеорологических станциях:

Погода в Тенгчонге (Юньнань, Китай) (112 км)
Погода в Банмо (Мьянма) (124 км)
Погода в Жуйли (Юньнань, Китай) (156 км)
Погода в Катхе (Мьянма) (172 км)
Погода в Баошане (Хэйлунцзян, Китай) (181 км)
Погода в Хкамти (Мьянма) (184 км)
Погода в Путао (Мьянма) (218 км)
Погода в Хомалине (Мьянма) (256 км)
Погода в Лашо (Мьянма) (274 км)
Погода в Дали (Юньнань, Китай) (281 км)

Пояснения к столбцам:

Ветер - указаны скорость ветра в м/с - средняя за 10 мин, порывы в срок и между сроками (в фигурных скобках) и направление, откуда дует ветер: С - северный, СВ - северо-восточный, В - восточный, ЮВ - юго-восточный, Ю - южный, ЮЗ - юго-западный, З - западный, СЗ - северо-западный.
Видимость - горизонтальная дальность видимости в метрах или километрах. При видимости от 1 до 10 км при отсутствии осадков обычно наблюдается дымка, при ухудшении видимости до 1 км и менее - туман. В сухую погоду видимость может ухудшаться дымом, пылью или мглою.
Явления - указаны атмосферные явления, наблюдавшиеся в срок или в последний час перед сроком; фигурными скобками обозначены явления, наблюдавшиеся между сроками (за 1-3 часа до срока); квадратными скобками обозначены град или гололедные отложения с указанием их диаметра в мм.
Облачность - указаны через наклонную черту общая и нижняя облачность в баллах и высота нижней границы облаков в метрах; квадратными скобками обозначены формы облаков: Ci - перистые, Cs - перисто-слоистые, Cc - перисто-кучевые, Ac - высококучевые, As - высокослоистые, Sc - слоисто-кучевые, Ns - слоисто-дождевые, Cu - кучевые, Cb - кучево-дождевые. Подробнее классификацию облаков см. в Атласе облаков (PDF).
T - Температура воздуха - температура, измеренная на высоте 2 м над землей.
Td - Температура точки росы - температура, при понижении до которой содержащийся в воздухе водяной пар достигнет насыщения.
f - Относительная влажность воздуха - влажноcть воздуха, измеренная на высоте 2 м над землей.
Te - Эффективная температура - температура, которую ощущает одетый по сезону человек в тени. Характеристика душности погоды. При расчете учитывается влияние влажности воздуха и скорости ветра на теплоощущения человека.
Tes - Эффективная температура на солнце - температура, которую ощущает человек, с поправкой на солнечный нагрев. Характеристика знойности погоды. Зависит от высоты солнца над горизонтом, облачности и скорости ветра. Ночью, в пасмурную погоду, а также при ветре 12 м/с и более поправка равна нулю.
P - Атмосферное давление - приведенное к уровню моря атмосферное давление.
Po - Атмосферное давление - измеренное на уровне метеостанции атмосферное давление.
Tmin - Минимальная температура - минимум температуры воздуха на высоте 2 м над землей.
Tmax - Максимальная температура - максимум температуры воздуха на высоте 2 м над землей.
R - Количество осадков - Количество выпавших осадков за период времени, мм. При наведении курсора мыши на число - период времени, за который выпало указанное количество осадков.
R24 - Количество осадков - Количество выпавших осадков за 24 часа, мм.
S - Снежный покров - Высота снежного покрова, см. При наведении курсора мыши на число - состояние снежного покрова и степень покрытия местности в баллах.